Regional Weather Roundup
Issued by NWS

Home | Current Version | Previous Version | Text Only | Print | Product List | Glossary On
Versions: 1 2 3 4 5 6 7 8 9 10 11 12 13 14 15 16 17 18 19 20 21 22 23 24 25 26 27 28
000
ASUS46 KSEW 010210
RWRWA

WASHINGTON REGIONAL WEATHER ROUNDUP
NATIONAL WEATHER SERVICE SEATTLE WA
700 PM PDT WED AUG 31 2016

NOTE:"FAIR" INDICATES FEW OR NO CLOUDS BELOW 12,000 FEET WITH NO
SIGNIFICANT WEATHER AND/OR OBSTRUCTIONS TO VISIBILITY.

WAZ505-507>509-010300-
SEATTLE, TACOMA, EVERETT, AND VICINITY

CITY           SKY/WX    TMP DP  RH WIND       PRES   REMARKS
EVERETT        CLOUDY    65  56  72 SE12      29.97S
BOEING FIELD   CLOUDY    66  59  78 SE8       29.96S
RENTON         CLOUDY    69  59  70 S5        29.96S
SEATAC AIRPORT CLOUDY    66  57  72 S7        29.98S
JBLM-MCCHORD   CLOUDY    62  62  99 S7        29.98S
PUYALLUP         N/A    N/A N/A N/A CALM      29.99S
BREMERTON      CLOUDY    64  57  77 S13       29.99S
JBLM-FT LEWIS  CLOUDY    62  61  99 SE6       29.97F
TACOMA NARROWS CLOUDY    64  57  78 S7        29.98R
$$

WAZ001-503-506-510-514-515-010300-
NORTH INTERIOR

CITY           SKY/WX    TMP DP  RH WIND       PRES   REMARKS
BELLINGHAM     CLOUDY    62  58  86 SE6       29.94F
FRIDAY HARBOR  CLOUDY    60  56  86 SE3       29.96S
EASTSOUND      CLOUDY    63  57  82 S8        29.92F
PORT ANGELES   LGT RAIN  62  57  83 NW3       29.95F
EDIZ HOOK      FAIR      60  57  89 W9        29.95S
PORT TOWNSEND  CLOUDY    64  59  82 CALM      29.96S
NAS WHIDBEY    LGT RAIN  64  59  83 SE6       29.99F
ARLINGTON      CLOUDY    64  54  68 SE8       29.97F
BURLINGTON     CLOUDY    63  61  94 CALM      29.95F
$$

WAZ020-022-039-040-504-511-512-010300-
SOUTHWEST INTERIOR

CITY           SKY/WX    TMP DP  RH WIND       PRES   REMARKS
SHELTON        CLOUDY    65  56  72 SW14      29.95S
OLYMPIA        CLOUDY    64  57  78 SW6       29.98S
CHEHALIS       CLOUDY    66  63  88 W3        29.99S
KELSO          MOCLDY    65  62  90 CALM      30.01R
VANCOUVER      CLOUDY    67  60  78 SW3       30.00R
SCAPPOOSE, OR  LGT RAIN  66  61  84 CALM      29.99S
PORTLAND, OR   CLOUDY    68  59  73 SW6       30.00S
$$

WAZ021-516-517-010300-
WASHINGTON COAST

CITY           SKY/WX    TMP DP  RH WIND       PRES   REMARKS
FORKS          CLOUDY    61  57  87 SW8       29.96S
HOQUIAM        CLOUDY    63  60  90 S12       30.00S
ASTORIA, OR    CLOUDY    64  58  80 SW7       30.00F
$$

WAZ019-023-024-040-518-519-010300-
CASCADE MOUNTAINS AND COLUMBIA GORGE

CITY           SKY/WX    TMP DP  RH WIND       PRES   REMARKS
STAMPEDE PASS  CLOUDY    50  48  93 VRB5      30.03F
TROUTDALE, OR  CLOUDY    67  63  87 SW5       30.00S
THE DALLES, OR PTCLDY    73  53  49 NW17      29.91R
$$

WAZ026-027-041>044-520-521-010300-
EAST SLOPES

CITY           SKY/WX    TMP DP  RH WIND       PRES   REMARKS
OMAK           PTCLDY    80  36  20 S12       29.77R
WENATCHEE      CLOUDY    75  49  39 NW18      29.83R
ELLENSBURG     MOCLDY    68  50  52 NW28G37   29.89S
YAKIMA         MOCLDY    79  49  34 VRB6      29.85R
$$

WAZ028-034-035-010300-
COLUMBIA BASIN

CITY           SKY/WX    TMP DP  RH WIND       PRES   REMARKS
EPHRATA        CLEAR     77  44  30 S10       29.81S
MOSES LAKE     CLEAR     78  44  29 SE8       29.82S
PASCO          CLEAR     85  48  27 SE7       29.79F
HERMISTON, OR  CLEAR     81  50  33 SW8       29.82S
$$

WAZ036>038-010300-
NORTHEAST WASHINGTON

CITY           SKY/WX    TMP DP  RH WIND       PRES   REMARKS
SPOKANE GEIGER PTCLDY    77  36  22 SW10      29.87S
SPOKANE FELTS  CLEAR     80  39  23 SW13      29.85S
FAIRCHILD AFB  CLEAR     75  36  24 SW9       29.87S
COEURDALENE,ID PTCLDY    79  41  25 NE9       29.83S
DEER PARK      CLEAR     78  35  21 SW12      29.86R
$$

WAZ029>033-010300-
SOUTHEAST WASHINGTON

CITY           SKY/WX    TMP DP  RH WIND       PRES   REMARKS
PULLMAN        MOCLDY    75  41  29 W10       29.91S
LEWISTON, ID   MOCLDY    82  41  23 W13       29.83S
WALLA WALLA    PTCLDY    78  39  24 SW8       29.85S
PENDLETON, OR  CLEAR     78  43  28 W15       29.87R
$$




USA.gov is the U.S. government's official web portal to all federal, state and local government web resources and services.